Time,TemperatureF,DewpointF,PressureIn,WindDirection,WindDirectionDegrees,WindSpeedMPH,WindSpeedGustMPH,Humidity,HourlyPrecipIn,Conditions,Clouds,dailyrainin,SoftwareType,DateUTC
2013-10-14 00:14:00,58.0,56.0,30.26,ENE,75,0.0,0.0,92,0.00,,,0.00,,2013-10-14 04:14:00,
2013-10-14 00:24:00,58.0,56.0,30.26,ENE,75,0.0,0.0,93,0.00,,,0.03,,2013-10-14 04:24:00,
2013-10-14 00:43:00,58.0,56.0,30.26,ENE,75,0.0,0.0,93,0.00,,,0.03,,2013-10-14 04:43:00,
2013-10-14 00:54:00,58.0,56.0,30.26,ENE,75,0.0,0.0,93,0.00,,,0.03,,2013-10-14 04:54:00,
2013-10-14 01:23:00,58.0,56.0,30.25,ENE,75,0.0,0.0,93,0.00,,,0.03,,2013-10-14 05:23:00,
2013-10-14 01:52:00,58.0,56.0,30.26,ENE,75,0.0,0.0,93,0.00,,,0.03,,2013-10-14 05:52:00,
2013-10-14 02:22:00,58.0,56.0,30.27,ENE,75,0.0,0.0,94,0.00,,,0.03,,2013-10-14 06:22:00,
2013-10-14 02:52:00,58.0,56.0,30.27,ENE,75,0.0,0.0,94,0.00,,,0.03,,2013-10-14 06:52:00,
2013-10-14 03:22:00,58.0,56.0,30.26,ENE,75,0.0,0.0,94,0.00,,,0.03,,2013-10-14 07:22:00,
2013-10-14 03:42:00,58.0,56.0,30.26,ENE,75,0.0,0.0,93,0.00,,,0.03,,2013-10-14 07:42:00,
2013-10-14 03:52:00,58.0,56.0,30.26,ENE,75,0.0,0.0,94,0.00,,,0.03,,2013-10-14 07:52:00,
2013-10-14 04:22:00,58.0,57.0,30.26,ENE,75,0.0,0.0,96,0.00,,,0.03,,2013-10-14 08:22:00,
2013-10-14 04:52:00,58.0,57.0,30.27,ENE,75,0.0,0.0,96,0.00,,,0.03,,2013-10-14 08:52:00,
2013-10-14 05:11:00,57.0,56.0,30.27,ENE,75,0.0,0.0,97,0.00,,,0.03,,2013-10-14 09:11:00,
2013-10-14 05:22:00,57.0,56.0,30.27,ENE,75,0.0,0.0,97,0.00,,,0.03,,2013-10-14 09:22:00,
2013-10-14 05:43:00,57.0,56.0,30.27,ENE,75,0.0,0.0,97,0.00,,,0.03,,2013-10-14 09:43:00,
2013-10-14 05:53:00,57.0,56.0,30.27,ENE,75,0.0,0.0,97,0.00,,,0.03,,2013-10-14 09:53:00,
2013-10-14 06:23:00,57.0,56.0,30.27,ENE,75,0.0,0.0,97,0.00,,,0.03,,2013-10-14 10:23:00,
2013-10-14 06:53:00,57.0,57.0,30.27,ENE,75,0.0,0.0,99,0.00,,,0.03,,2013-10-14 10:53:00,
2013-10-14 07:22:00,58.0,58.0,30.27,ENE,75,0.0,0.0,100,0.00,,,0.03,,2013-10-14 11:22:00,
2013-10-14 07:32:00,58.0,58.0,30.27,ENE,75,0.0,0.0,100,0.00,,,0.03,,2013-10-14 11:32:00,
2013-10-14 07:42:00,58.0,58.0,30.27,ENE,75,0.0,0.0,100,0.00,,,0.03,,2013-10-14 11:42:00,
2013-10-14 07:52:00,57.0,57.0,30.28,ENE,75,0.0,0.0,99,0.00,,,0.03,,2013-10-14 11:52:00,
2013-10-14 08:22:00,58.0,58.0,30.28,ENE,75,0.0,0.0,99,0.00,,,0.03,,2013-10-14 12:22:00,
2013-10-14 08:42:00,58.0,58.0,30.29,ENE,75,0.0,0.0,99,0.00,,,0.03,,2013-10-14 12:42:00,
2013-10-14 08:52:00,58.0,58.0,30.29,ENE,75,0.0,0.0,99,0.00,,,0.03,,2013-10-14 12:52:00,
2013-10-14 09:11:00,59.0,59.0,30.29,ENE,75,0.0,0.0,99,0.00,,,0.03,,2013-10-14 13:11:00,
2013-10-14 09:22:00,59.0,59.0,30.29,ENE,75,0.0,0.0,99,0.00,,,0.03,,2013-10-14 13:22:00,
2013-10-14 09:32:00,59.0,59.0,30.29,ENE,75,0.0,0.0,99,0.00,,,0.03,,2013-10-14 13:32:00,
2013-10-14 09:42:00,59.0,59.0,30.29,ENE,75,0.0,0.0,99,0.00,,,0.03,,2013-10-14 13:42:00,
2013-10-14 09:52:00,61.0,59.0,30.31,ENE,75,0.0,0.0,92,0.00,,,0.03,,2013-10-14 13:52:00,
2013-10-14 10:11:00,61.0,59.0,30.31,ENE,75,0.0,0.0,92,0.00,,,0.03,,2013-10-14 14:11:00,
2013-10-14 10:22:00,61.0,58.0,30.30,ENE,75,0.0,0.0,91,0.00,,,0.03,,2013-10-14 14:22:00,
2013-10-14 10:42:00,61.0,59.0,30.31,WNW,297,0.0,0.0,92,0.00,,,0.03,,2013-10-14 14:42:00,
2013-10-14 10:52:00,61.0,59.0,30.30,WNW,297,0.0,0.0,92,0.00,,,0.03,,2013-10-14 14:52:00,
2013-10-14 11:22:00,62.0,58.0,30.30,WNW,297,0.0,0.0,87,0.00,,,0.03,,2013-10-14 15:22:00,
2013-10-14 11:54:00,63.0,59.0,30.30,WNW,297,0.0,0.0,86,0.00,,,0.03,,2013-10-14 15:54:00,
2013-10-14 12:23:00,64.0,58.0,30.29,West,274,0.0,0.0,82,0.00,,,0.03,,2013-10-14 16:23:00,
2013-10-14 12:53:00,64.0,58.0,30.29,NW,305,0.0,0.0,80,0.00,,,0.03,,2013-10-14 16:53:00,
2013-10-14 13:22:00,64.0,58.0,30.28,North,356,4.0,4.0,81,0.00,,,0.03,,2013-10-14 17:22:00,
2013-10-14 13:52:00,64.0,58.0,30.27,West,266,0.0,0.0,80,0.00,,,0.03,,2013-10-14 17:52:00,
2013-10-14 14:22:00,65.0,58.0,30.25,WNW,294,0.0,0.0,79,0.00,,,0.03,,2013-10-14 18:22:00,
2013-10-14 14:52:00,65.0,58.0,30.25,WNW,287,0.0,4.0,79,0.00,,,0.03,,2013-10-14 18:52:00,
2013-10-14 15:22:00,65.0,59.0,30.24,West,276,0.0,0.0,81,0.00,,,0.03,,2013-10-14 19:22:00,
2013-10-14 15:52:00,65.0,59.0,30.24,West,277,3.0,0.0,82,0.00,,,0.03,,2013-10-14 19:52:00,
2013-10-14 16:02:00,65.0,59.0,30.24,West,277,3.0,0.0,82,0.00,,,0.03,,2013-10-14 20:02:00,
2013-10-14 16:11:00,65.0,59.0,30.24,West,277,3.0,0.0,82,0.00,,,0.03,,2013-10-14 20:11:00,
2013-10-14 16:22:00,65.0,59.0,30.24,West,277,3.0,0.0,82,0.00,,,0.03,,2013-10-14 20:22:00,
2013-10-14 16:52:00,62.0,59.0,30.23,West,274,4.0,5.0,90,0.00,,,0.03,,2013-10-14 20:52:00,
2013-10-14 17:22:00,62.0,59.0,30.23,NNW,330,3.0,4.0,90,0.00,,,0.03,,2013-10-14 21:22:00,
2013-10-14 17:54:00,62.0,59.0,30.23,WNW,285,0.0,0.0,91,0.00,,,0.03,,2013-10-14 21:54:00,
2013-10-14 18:24:00,62.0,59.0,30.23,WNW,295,0.0,0.0,91,0.00,,,0.03,,2013-10-14 22:24:00,
2013-10-14 18:54:00,62.0,59.0,30.24,West,271,0.0,0.0,91,0.00,,,0.03,,2013-10-14 22:54:00,
2013-10-14 19:22:00,61.0,59.0,30.24,WNW,298,0.0,0.0,92,0.00,,,0.03,,2013-10-14 23:22:00,
2013-10-14 19:53:00,61.0,59.0,30.24,WNW,298,0.0,0.0,94,0.00,,,0.03,,2013-10-14 23:53:00,
2013-10-14 20:22:00,61.0,60.0,30.25,WNW,298,0.0,0.0,95,0.00,,,0.03,,2013-10-15 00:22:00,
2013-10-14 20:52:00,60.0,59.0,30.25,WNW,298,0.0,0.0,96,0.00,,,0.03,,2013-10-15 00:52:00,
2013-10-14 21:22:00,60.0,59.0,30.25,WNW,298,0.0,0.0,97,0.00,,,0.03,,2013-10-15 01:22:00,
2013-10-14 21:52:00,60.0,59.0,30.26,WNW,298,0.0,0.0,97,0.00,,,0.03,,2013-10-15 01:52:00,
2013-10-14 22:22:00,60.0,60.0,30.25,WNW,298,0.0,0.0,99,0.00,,,0.03,,2013-10-15 02:22:00,
2013-10-14 22:52:00,59.0,59.0,30.24,WNW,298,0.0,0.0,100,0.00,,,0.03,,2013-10-15 02:52:00,
2013-10-14 23:23:00,59.0,59.0,30.24,WNW,298,0.0,0.0,100,0.00,,,0.03,,2013-10-15 03:23:00,
2013-10-14 23:55:00,59.0,59.0,30.24,WNW,298,0.0,0.0,100,0.00,,,0.03,,2013-10-15 03:55:00,